Snyder, TX

9:29 AM CDT on May 27, 2017 (GMT -0500)
Winston

Weather History for KSNK - September, 2013

Change the Weather History Date:

Tuesday, September 10, 2013

  Actual Average Record
Temperature  
Mean Temperature 77 °F -  
Max Temperature 85 °F 87 °F 101 °F (1915)
Min Temperature 69 °F 63 °F 45 °F (1956)
Cooling Degree Days 12    
Growing Degree Days 27 (Base 50)    
Moisture  
Dew Point 65 °F    
Average Humidity 68    
Maximum Humidity 88    
Minimum Humidity 49    
Precipitation  
Precipitation 0.00 in - - ()
Sea Level Pressure  
Sea Level Pressure 30.07 in    
Wind  
Wind Speed 11 mph (SE)    
Max Wind Speed 21 mph    
Max Gust Speed 25 mph    
Visibility 10 miles    
Events      
Averages and records for this station are not official NWS values.
T = Trace of Precipitation, MM = Missing Value Source: NWS Daily Summary

Daily Weather History Graph

Daily Weather History Graph

Search for Another Location

Airport or City:

Trip Planner

Search our weather history database for the weather conditions in past years. The results will help you decide how hot, cold, wet, or windy it might be!

Date:

Astronomy

Sep. 10, 2013 Rise Set
Actual Time 7:24 AM CDT 7:56 PM CDT
Civil Twilight 6:59 AM CDT 8:21 PM CDT
Nautical Twilight 6:30 AM CDT 8:50 PM CDT
Astronomical Twilight 6:00 AM CDT 9:19 PM CDT
Moon 12:32 PM CDT (9/10) 11:20 PM CDT (9/10)
Length of Visible Light 13h 21m
Length of Day
12h 31m
Waxing Crescent, 28% of the Moon is Illuminated
Sep 10
Waxing Crescent
Sep 12
First Quarter
Sep 19
Full
Sep 26
Last Quarter
Oct 4
New

Hourly Weather History & Observations

Time (CDT) Temp. Heat Index Dew Point Humidity Pressure Visibility Wind Dir Wind Speed Gust Speed Precip Events Conditions
12:15 AM 78.6 °F - 63.0 °F 59% 30.02 in 10.0 mi ESE 15.0 mph 20.7 mph N/A   Clear
12:35 AM 77.0 °F - 63.3 °F 63% 30.02 in 10.0 mi SE 13.8 mph 20.7 mph N/A   Clear
12:55 AM 77.0 °F - 64.0 °F 64% 30.02 in 10.0 mi SSE 12.7 mph - N/A   Clear
1:15 AM 77.0 °F - 64.4 °F 65% 30.02 in 10.0 mi SSE 13.8 mph - N/A   Clear
1:35 AM 77.0 °F - 64.6 °F 65% 30.03 in 10.0 mi SSE 10.4 mph - N/A   Clear
1:55 AM 76.3 °F - 64.6 °F 67% 30.03 in 10.0 mi SSE 11.5 mph - N/A   Clear
2:15 AM 74.8 °F - 63.9 °F 69% 30.03 in 10.0 mi SSE 9.2 mph - N/A   Clear
2:35 AM 74.5 °F - 64.0 °F 70% 30.03 in 10.0 mi SSE 9.2 mph - N/A   Clear
2:55 AM 74.5 °F - 64.6 °F 71% 30.03 in 10.0 mi SE 9.2 mph - N/A   Clear
3:15 AM 74.5 °F - 64.8 °F 72% 30.03 in 10.0 mi SSE 8.1 mph - N/A   Clear
3:35 AM 74.5 °F - 65.3 °F 73% 30.04 in 10.0 mi SSE 8.1 mph - N/A   Clear
3:55 AM 73.0 °F - 64.4 °F 74% 30.04 in 10.0 mi SSE 8.1 mph - N/A   Clear
4:15 AM 72.0 °F - 63.9 °F 76% 30.04 in 10.0 mi SE 6.9 mph - N/A   Clear
4:35 AM 71.6 °F - 64.4 °F 78% 30.04 in 10.0 mi SE 6.9 mph - N/A   Clear
4:55 AM 70.2 °F - 64.2 °F 81% 30.04 in 10.0 mi ESE 6.9 mph - N/A   Clear
5:15 AM 69.4 °F - 64.8 °F 85% 30.04 in 10.0 mi ESE 6.9 mph - N/A   Clear
5:35 AM 69.4 °F - 65.3 °F 87% 30.05 in 10.0 mi ESE 8.1 mph - N/A   Clear
5:55 AM 69.4 °F - 64.8 °F 85% 30.05 in 10.0 mi ESE 9.2 mph - N/A   Clear
6:15 AM 69.4 °F - 64.6 °F 84% 30.06 in 10.0 mi SE 8.1 mph - N/A   Clear
6:35 AM 69.4 °F - 65.1 °F 86% 30.06 in 10.0 mi ESE 9.2 mph - N/A   Clear
6:55 AM 69.4 °F - 65.5 °F 87% 30.06 in 10.0 mi SE 5.8 mph - N/A   Clear
7:15 AM 69.4 °F - 65.7 °F 88% 30.07 in 10.0 mi SE 6.9 mph - N/A   Clear
7:35 AM 69.4 °F - 65.8 °F 88% 30.07 in 10.0 mi SE 6.9 mph - N/A   Mostly Cloudy
7:55 AM 69.4 °F - 65.3 °F 87% 30.08 in 10.0 mi SSE 6.9 mph - N/A   Overcast
8:15 AM 69.4 °F - 64.8 °F 85% 30.08 in 10.0 mi SE 8.1 mph - N/A   Scattered Clouds
8:35 AM 70.3 °F - 64.9 °F 83% 30.09 in 10.0 mi SE 11.5 mph - N/A   Scattered Clouds
8:55 AM 72.5 °F - 65.8 °F 80% 30.09 in 10.0 mi SSE 10.4 mph - N/A   Scattered Clouds
9:15 AM 74.5 °F - 66.6 °F 76% 30.09 in 10.0 mi SE 11.5 mph - N/A   Clear
9:35 AM 74.5 °F - 65.5 °F 73% 30.10 in 10.0 mi SSE 10.4 mph - N/A   Scattered Clouds
9:55 AM 74.5 °F - 65.3 °F 73% 30.11 in 10.0 mi SE 11.5 mph 18.4 mph N/A   Mostly Cloudy
10:15 AM 75.2 °F - 65.7 °F 72% 30.11 in 10.0 mi SSE 12.7 mph 18.4 mph N/A   Overcast
10:35 AM 76.6 °F - 66.4 °F 70% 30.12 in 10.0 mi SSE 12.7 mph 16.1 mph N/A   Overcast
10:55 AM 77.0 °F - 66.0 °F 69% 30.12 in 10.0 mi SSE 10.4 mph - N/A   Overcast
11:15 AM 77.2 °F - 65.3 °F 67% 30.12 in 10.0 mi SE 11.5 mph 16.1 mph N/A   Overcast
11:35 AM 78.3 °F - 64.8 °F 63% 30.12 in 10.0 mi SE 10.4 mph 18.4 mph N/A   Mostly Cloudy
11:55 AM 79.3 °F - 65.5 °F 62% 30.13 in 10.0 mi SSE 12.7 mph - N/A   Overcast
12:15 PM 79.7 °F - 65.1 °F 61% 30.13 in 10.0 mi SSE 11.5 mph - N/A   Mostly Cloudy
12:35 PM 79.7 °F - 64.8 °F 60% 30.12 in 10.0 mi SE 10.4 mph - N/A   Overcast
12:55 PM 79.7 °F - 64.9 °F 61% 30.12 in 10.0 mi SE 10.4 mph - N/A   Overcast
1:15 PM 79.9 °F - 64.8 °F 60% 30.12 in 10.0 mi SE 10.4 mph - N/A   Overcast
1:35 PM 80.2 °F 82.1 °F 65.3 °F 60% 30.11 in 10.0 mi SE 11.5 mph 16.1 mph N/A   Overcast
1:55 PM 81.1 °F 83.2 °F 65.8 °F 60% 30.11 in 10.0 mi ESE 15.0 mph 20.7 mph N/A   Overcast
2:15 PM 81.0 °F 82.9 °F 65.5 °F 59% 30.10 in 10.0 mi SE 11.5 mph - N/A   Mostly Cloudy
2:35 PM 81.5 °F 83.4 °F 65.3 °F 58% 30.09 in 10.0 mi ESE 15.0 mph - N/A   Mostly Cloudy
2:55 PM 82.4 °F 84.2 °F 65.5 °F 56% 30.08 in 10.0 mi SE 11.5 mph - N/A   Mostly Cloudy
3:15 PM 82.9 °F 84.6 °F 64.8 °F 54% 30.07 in 10.0 mi ESE 12.7 mph 18.4 mph N/A   Mostly Cloudy
3:35 PM 84.2 °F 85.8 °F 64.8 °F 52% 30.06 in 10.0 mi ESE 12.7 mph 23.0 mph N/A   Scattered Clouds
3:55 PM 84.7 °F 86.3 °F 64.8 °F 51% 30.05 in 10.0 mi ESE 13.8 mph - N/A   Scattered Clouds
4:15 PM 85.6 °F 87.1 °F 64.6 °F 49% 30.04 in 10.0 mi SE 12.7 mph 19.6 mph N/A   Scattered Clouds
4:35 PM 85.3 °F 86.8 °F 64.6 °F 50% 30.04 in 10.0 mi SSE 12.7 mph 19.6 mph N/A   Scattered Clouds
4:55 PM 85.1 °F 86.6 °F 64.4 °F 50% 30.03 in 10.0 mi SE 13.8 mph 18.4 mph N/A   Scattered Clouds
5:15 PM 85.3 °F 86.6 °F 64.4 °F 49% 30.03 in 10.0 mi SE 18.4 mph - N/A   Scattered Clouds
5:35 PM 84.7 °F 86.1 °F 64.4 °F 50% 30.03 in 10.0 mi SE 17.3 mph 21.9 mph N/A   Mostly Cloudy
5:55 PM 85.1 °F 86.6 °F 64.8 °F 50% 30.04 in 10.0 mi SE 20.7 mph - N/A   Mostly Cloudy
6:15 PM 83.8 °F 85.3 °F 64.4 °F 52% 30.04 in 10.0 mi ESE 18.4 mph - N/A   Mostly Cloudy
6:35 PM 82.8 °F 84.3 °F 64.4 °F 54% 30.04 in 10.0 mi ESE 17.3 mph 24.2 mph N/A   Mostly Cloudy
6:55 PM 82.4 °F 83.9 °F 64.2 °F 54% 30.05 in 10.0 mi ESE 17.3 mph 24.2 mph N/A   Scattered Clouds
7:15 PM 82.4 °F 84.1 °F 64.6 °F 55% 30.05 in 10.0 mi SE 16.1 mph 25.3 mph N/A   Scattered Clouds
7:35 PM 81.7 °F 83.3 °F 64.6 °F 56% 30.06 in 10.0 mi SE 20.7 mph 24.2 mph N/A   Mostly Cloudy
7:55 PM 80.8 °F 82.4 °F 64.4 °F 57% 30.07 in 10.0 mi SE 17.3 mph 21.9 mph N/A   Scattered Clouds
8:15 PM 78.4 °F - 67.1 °F 68% 30.08 in 10.0 mi SE 9.2 mph - N/A   Clear
8:35 PM 77.0 °F - 67.3 °F 72% 30.08 in 10.0 mi SE 16.1 mph - N/A   Mostly Cloudy
8:55 PM 77.0 °F - 66.6 °F 70% 30.09 in 10.0 mi SE 11.5 mph - N/A   Scattered Clouds
9:15 PM 77.0 °F - 65.8 °F 68% 30.09 in 10.0 mi SE 10.4 mph - N/A   Scattered Clouds
9:35 PM 77.0 °F - 66.0 °F 69% 30.10 in 10.0 mi SE 8.1 mph - N/A   Clear
9:55 PM 77.0 °F - 66.9 °F 71% 30.11 in 10.0 mi ESE 8.1 mph - N/A   Scattered Clouds
10:15 PM 76.5 °F - 66.9 °F 72% 30.11 in 10.0 mi SE 6.9 mph - N/A   Scattered Clouds
10:35 PM 75.6 °F - 66.6 °F 74% 30.11 in 10.0 mi ESE 5.8 mph - N/A   Mostly Cloudy
10:55 PM 75.4 °F - 66.2 °F 73% 30.11 in 10.0 mi SE 6.9 mph - N/A   Scattered Clouds
11:15 PM 74.5 °F - 65.5 °F 73% 30.11 in 10.0 mi SE 6.9 mph - N/A   Scattered Clouds
11:35 PM 74.5 °F - 65.5 °F 73% 30.11 in 10.0 mi SE 6.9 mph - N/A   Clear
11:55 PM 74.5 °F - 65.8 °F 74% 30.12 in 10.0 mi SE 8.1 mph - N/A   Clear